Terug naar catalogus

HULIANWANG DIGUI-112

ActiefCommunicatieLEO
NORAD 66922·PAYLOAD·🇨🇳 China

Gelanceerd Dec 6, 2025 vanaf Wenchang Space Launch Site

Loading…

Volgende Passages (komende 24 uur)

TLE

VersSource: Space-Track

Epoch: Sep 14, 2026, 04:55 UTC

1 66922U 25285H   26257.20512971 -.00000087  00000-0  78896-4 0  9994
2 66922  50.0077 186.5268 0000202 240.2644 119.8208 13.29328848 37904

Volg HULIANWANG DIGUI-112 in realtime met AllMySat

Download on the App Store